P/2011 S1 ( Gibbs )

Japanese version
Home page
Updated on February 6, 2012

---------------------------------------------------------------------

* Profile

Discovery Date September 18, 2011
Magnitude 21.2 mag
Discoverer A. R. Gibbs (Mt. Lemmon)

* Pictures

* Orbital Elements

Epoch 2014 Sept. 20.0 TT = JDT 2456920.5
T 2014 Oct. 4.14570 TT                                  MPC
q   7.0250131            (2000.0)            P               Q
n   0.04013812     Peri.  194.09702     +0.60868252     -0.79287205
a   8.4482095      Node   218.42085     +0.73243738     +0.57572520
e   0.1684613      Incl.    2.70405     +0.30502636     +0.19973587
P  24.6
From 54 observations 2011 Sept. 6-Nov. 14, mean residual 0".7.

* Magnitudes Graph

        m1 = 7.0 + 5 log d + 10.0 log r

---------------------------------------------------------------------

The orbital elements are published on M.P.E.C. 2012-C24.
The magnitudes graphs are made with Comet for Windows.

---------------------------------------------------------------------

Copyright(C) Seiichi Yoshida (comet@aerith.net). All rights reserved.